User: anonymous   Login
Location: Unspecified
(0.0000°N, 0.0000°E)
Time: 06:40:45
(UTC+00:00)
Language:

Kosmos-2074 - Orbit

View from above orbital plane
View from above orbital plane
View from above satellite
View from above satellite

Ground track
Ground track

The orbit data is extracted from the following two-line orbital elements,

1 20577U 90036A   18173.29879381 +.00000027 +00000-0 +11792-4 0  9999
2 20577 082.9439 105.7696 0028262 062.0143 092.2298 13.74625249412965
Epoch (UTC): 22 June 2018 07:10:15
Eccentricity: 0.0028262
inclination: 82.9439°
perigee height: 962 km
apogee height: 1004 km
right ascension of ascending node: 105.7696°
argument of perigee: 62.0143°
revolutions per day: 13.74625249
mean anomaly at epoch: 92.2298°
orbit number at epoch: 41296

The dashed part of the orbit path shows where the satellite is in the earth's shadow,  

DLR